Weather History for Grand Forks, ND

Change the Weather History Date:

Thursday, December 5, 2013

  Actual Average Record
Temperature  
Mean Temperature -1 °F 15 °F  
Max Temperature 6 °F 24 °F 50 °F (1988)
Min Temperature -8 °F 7 °F -19 °F (2007)
Degree Days  
Heating Degree Days 66 50  
Month to date heating degree days 246 244  
Since 1 July heating degree days 2357 2443  
Cooling Degree Days 0 0  
Month to date cooling degree days 0 0  
Year to date cooling degree days 487 379  
Moisture  
Dew Point -3 °F    
Average Humidity 76    
Maximum Humidity 83    
Minimum Humidity 69    
Precipitation  
Precipitation T in 0.02 in 0.34 in (1960)
Month to date precipitation 0.36 0.10  
Year to date precipitation 19.19 20.30  
Snow  
Snow 0.10 in 0.30 in 3.40 in (1960)
Month to date snowfall 10.5 1.6  
Since 1 July snowfall 12.1 10.8  
Snow Depth 8.00 in    
Sea Level Pressure  
Sea Level Pressure 30.02 in    
Wind  
Wind Speed 18 mph (WNW)    
Max Wind Speed 26 mph    
Max Gust Speed 33 mph    
Visibility 7 miles    
Events Snow    
T = Trace of Precipitation, MM = Missing Value Source: NWS Daily Summary

Daily Weather History Graph

Daily Weather History Graph

Search for Another Location

Airport:

Trip Planner

Search our weather history database for the weather conditions in past years. The results will help you decide how hot, cold, wet, or windy it might be!

Date:

Astronomy

Dec. 05, 2013 Rise Set
Actual Time 8:02 AM CST 4:36 PM CST
Civil Twilight 7:26 AM CST 5:12 PM CST
Nautical Twilight 6:47 AM CST 5:51 PM CST
Astronomical Twilight 6:09 AM CST 6:28 PM CST
Moon 10:17 AM CST (12/5) 8:06 PM CST (12/5)
Length of Visible Light 9h 45m
Length of Day
8h 34m
Waxing Crescent, 11% of the Moon is Illuminated
Dec 5
Waxing Crescent
Dec 9
First Quarter
Dec 17
Full
Dec 25
Last Quarter
Jan 1
New

Hourly Weather History & Observations

Time (CST) Temp. Windchill Dew Point Humidity Pressure Visibility Wind Dir Wind Speed Gust Speed Precip Events Conditions
12:14 AM 6.8 °F -14.3 °F 1.4 °F 79% 29.75 in 2.0 mi NW 23.0 mph 28.8 mph 0.00 in Snow Light Snow
12:27 AM 6.8 °F -13.8 °F 1.4 °F 79% 29.75 in 2.0 mi NW 21.9 mph 28.8 mph 0.00 in Snow Light Snow
12:53 AM 5.0 °F -16.7 °F -0.0 °F 80% 29.82 in 4.0 mi NW 23.0 mph 28.8 mph 0.00 in Snow Light Snow
1:50 AM 5.0 °F -17.1 °F -0.4 °F 78% 29.76 in 2.0 mi NW 24.2 mph - 0.00 in Snow Light Snow
1:53 AM 5.0 °F -16.2 °F -0.0 °F 80% 29.83 in 1.8 mi NW 21.9 mph - 0.00 in Snow Blowing Snow
2:01 AM 5.0 °F -16.7 °F -0.4 °F 78% 29.76 in 2.5 mi NW 23.0 mph - 0.00 in Snow Blowing Snow
2:37 AM 5.0 °F -16.7 °F -0.4 °F 78% 29.78 in 3.0 mi NW 23.0 mph 29.9 mph 0.00 in Snow Light Snow
2:53 AM 5.0 °F -16.7 °F -0.0 °F 80% 29.85 in 4.0 mi WNW 23.0 mph 29.9 mph 0.00 in Snow Light Snow
3:53 AM 3.9 °F -17.6 °F -2.0 °F 76% 29.87 in 8.0 mi WNW 21.9 mph - 0.00 in   Overcast
4:53 AM 3.9 °F -18.5 °F -2.0 °F 76% 29.89 in 6.0 mi WNW 24.2 mph 32.2 mph 0.00 in   Haze
5:26 AM 3.2 °F -19.5 °F -2.2 °F 78% 29.83 in 4.0 mi WNW 24.2 mph 33.4 mph 0.00 in   Overcast
5:42 AM 3.2 °F -17.6 °F -2.2 °F 78% 29.84 in 7.0 mi WNW 19.6 mph 28.8 mph 0.00 in   Overcast
5:53 AM 3.9 °F -17.6 °F -2.0 °F 76% 29.91 in 6.0 mi WNW 21.9 mph 28.8 mph 0.00 in Snow Blowing Snow
6:53 AM 3.0 °F -19.7 °F -2.9 °F 76% 29.94 in 3.0 mi WNW 24.2 mph 32.2 mph 0.00 in Snow Light Snow
7:53 AM 1.9 °F -20.2 °F -4.0 °F 76% 29.96 in 4.0 mi WNW 21.9 mph - 0.00 in Snow Light Snow
8:53 AM 1.9 °F -18.7 °F -2.9 °F 80% 29.99 in 4.0 mi WNW 18.4 mph - 0.00 in Snow Blowing Snow
9:53 AM 3.0 °F -17.8 °F -2.9 °F 76% 30.03 in 7.0 mi WNW 19.6 mph - N/A   Scattered Clouds
10:53 AM 5.0 °F -16.2 °F -2.9 °F 70% 30.05 in 7.0 mi WNW 21.9 mph 31.1 mph N/A   Scattered Clouds
11:38 AM 5.0 °F -17.1 °F -2.2 °F 72% 29.99 in 2.5 mi WNW 24.2 mph - 0.00 in Snow Light Snow
11:53 AM 5.0 °F -14.7 °F -0.9 °F 76% 30.07 in 2.0 mi WNW 18.4 mph 29.9 mph 0.00 in Snow Light Snow
12:53 PM 6.1 °F -14.3 °F -0.9 °F 73% 30.09 in 2.0 mi WNW 20.7 mph - 0.00 in Snow Blowing Snow
1:03 PM 6.8 °F -12.4 °F -0.4 °F 72% 30.02 in 4.0 mi NW 18.4 mph - N/A Snow Blowing Snow
1:53 PM 6.1 °F -13.3 °F -2.0 °F 69% 30.10 in 9.0 mi NW 18.4 mph - N/A   Mostly Cloudy
2:46 PM 5.0 °F -13.0 °F -2.2 °F 72% 30.05 in 10.0 mi WNW 15.0 mph - N/A   Mostly Cloudy
2:53 PM 6.1 °F -14.8 °F -2.9 °F 67% 30.12 in 10.0 mi WNW 21.9 mph 27.6 mph N/A   Mostly Cloudy
3:00 PM 5.0 °F -14.2 °F -2.2 °F 72% 30.06 in 10.0 mi WNW 17.3 mph 27.6 mph N/A   Mostly Cloudy
3:37 PM 5.0 °F -13.6 °F -2.2 °F 72% 30.07 in 10.0 mi NW 16.1 mph - N/A   Mostly Cloudy
3:51 PM 5.0 °F -12.3 °F -2.2 °F 72% 30.08 in 10.0 mi WNW 13.8 mph - N/A   Mostly Cloudy
3:53 PM 5.0 °F -13.6 °F -2.0 °F 73% 30.15 in 10.0 mi WNW 16.1 mph - N/A   Mostly Cloudy
4:28 PM 3.2 °F -13.1 °F -2.2 °F 78% 30.10 in 10.0 mi WNW 11.5 mph - N/A   Overcast
4:41 PM 3.2 °F -15.3 °F -2.2 °F 78% 30.11 in 10.0 mi WNW 15.0 mph - N/A   Overcast
4:53 PM 3.9 °F -15.6 °F -2.9 °F 73% 30.18 in 10.0 mi WNW 17.3 mph - N/A   Overcast
5:53 PM 1.9 °F -13.8 °F -5.1 °F 72% 30.19 in 10.0 mi WNW 10.4 mph - N/A   Overcast
6:45 PM 1.4 °F -16.1 °F -4.0 °F 78% 30.14 in 7.0 mi WNW 12.7 mph - 0.00 in   Overcast
6:53 PM 1.9 °F -16.9 °F -4.0 °F 76% 30.22 in 7.0 mi WNW 15.0 mph - 0.00 in   Overcast
7:48 PM -0.4 °F -20.5 °F -7.6 °F 72% 30.16 in 10.0 mi WNW 16.1 mph - N/A   Overcast
7:53 PM -0.0 °F -19.4 °F -7.1 °F 72% 30.25 in 10.0 mi WNW 15.0 mph - N/A   Overcast
8:53 PM -2.0 °F -18.7 °F -8.0 °F 76% 30.28 in 10.0 mi WNW 10.4 mph - N/A   Scattered Clouds
9:53 PM -2.0 °F -20.5 °F -9.9 °F 69% 30.30 in 10.0 mi WNW 12.7 mph - N/A   Partly Cloudy
10:53 PM -7.1 °F -21.4 °F -13.0 °F 75% 30.32 in 10.0 mi WNW 6.9 mph - N/A   Partly Cloudy
11:53 PM -7.1 °F -25.9 °F -13.0 °F 75% 30.35 in 10.0 mi West 11.5 mph - N/A   Clear